THOR ABLESTAR DEB, 658

Orbit data source: Space-Track

THOR ABLESTAR DEB, 658 is space debris in LEO originally from a launch on Thu, 29 Jun 1961 UTC launched from the Air Force Eastern Test Range (AFETR). Debris objects in space refer to the collection of defunct objects orbiting the Earth. Examples of debris include non-operational satellites, rocket bodies, and fragments generated from explosions, collisions, or faulty payload assembly.

Loading next visibility...
Identifier
658, 1961-015HK
Orbit
LEO
Country
Flag of USUS
Related business
Manufacturer
Unknown
Mission
Spacecraft
Bus & Motor
Unknown
Mass
Unknown
Launch date (UTC)
1961-06-29 (64 years ago)
Launch vehicle
Unknown
Launch site
Air Force Eastern Test Range (AFETR)
Object type
Payload
Rocket body
Debris
Shape & HBR
Unknown
Radar Cross Section
Small (<0.1 m²)

Expand to show TLE details & history
Last TLE update: 23 hours ago

TLE from 23 hours ago
0 THOR ABLESTAR DEB
1 00658U 61015HK  25257.85018341 -.00000439  00000-0 -45759-3 0  9994
2 00658  65.8650  56.5292 0351444 342.6062  16.3185 13.41235299 22663
Epoch: 2025-09-14T20:24Z
TLE epoch observation values (Epoch: 2025-09-14T20:24:15.846Z)
Latitude
-0.00003°
Longitude
116.39989°
Altitude
855.001 km
Speed
7.549 km/s
True Right ascension
03h 46m 07s
True Declination
0° 00' 00"
Sunlit
Object was in daylight at epoch
Visualization orbit readout
Latitude
Unknown
Longitude
Unknown
Altitude
Unknown
Speed
Unknown
Apparent Right ascension
Unknown
Apparent Declination
Unknown
Sunlit
N/A
Visualization observer readout
Local Sidereal Time
11:39:02
Azimuth
Unknown
Elevation
Unknown
Doppler factor
Unknown
Orbital elements
Apogee altitude
1,366.144 km
Perigee altitude
840.289 km
Semi-major axis
7,481.353 km
Eccentricity
0.03514
Inclination
65.865°
RAAN
56.5292°
Arg. of periapsis
342.6062°
True anomaly
17.49969°
Mean anomaly
16.3185°
Eccentric anomaly
16.904°
Mean motion
3.35408 °/min
Orbital period
107.33 mins
BSTAR
-0.00045759
Loading maneuver chart data...
Computing Atmospheric mass density...

Documentation

Showing up to 5 results
|